Vertical_Velocity
5 3 -5 2 -6 -5 -3 -0 -3 0 2 -3 2 -5 -4 15 6 9 3 6 4 -2 -2 0 2 0 3 2 2 -1 3 -2 1 0 -3 -4 -2 -1 -2 1 -1 1 0 -4 3 7 0 0 1 -5 -6 7 -1 -1
4 3 3 -2 2 -3 -3 -3 4 -5 1 7 4 1 -0 3 9 0 0 1 7 4 -1 -0 1 3 1 -2 -1 -1 -0 -1 0 -2 -1 -3 -1 0 1 0 0 -3 -6 -3 -9 13 -0 1 5 4 -4 -7 1 -8
-2 1 -0 3 1 -1 2 -4 4 -0 -0 8 10 4 -6 5 0 1 -3 6 1 2 5 -1 -2 2 1 5 7 1 0 4 3 5 3 0 2 -1 -2 -7 3 -3 -2 -3 4 -1 -0 -2 -0 0 -2 -3 2 4
-3 -2 -2 2 1 1 -3 9 -2 5 10 1 -2 20 2 2 5 -0 -1 3 -2 8 6 -5 1 2 11 5 1 5 4 2 2 3 1 1 7 -0 1 -3 -1 -7 -1 -0 0 -8 -3 -6 -4 -7 -8 -8 -8 -5
-1 -1 2 -3 0 -3 -1 7 16 5 5 6 4 -2 1 -5 19 1 5 -7 2 8 2 2 5 -2 -3 0 3 2 0 3 2 0 -0 1 -2 5 0 3 -4 -3 3 1 -6 1 -5 -0 -1 -1 -8 -7 -3 -4
-1 -1 0 -0 0 1 -0 1 11 12 6 8 -5 4 5 2 -4 14 10 14 -2 -2 13 -4 -0 -3 3 -3 -5 1 2 2 2 2 1 -2 0 2 -1 -4 -5 -3 2 2 -2 -3 -5 -1 -2 3 -6 -5 -7 -8
2 -1 -3 -2 -3 -1 0 2 -1 10 6 12 9 7 5 -0 -1 -4 -6 -5 -5 -4 -5 -7 -6 -5 1 2 1 -2 1 1 5 3 -0 -2 0 2 -1 -8 9 -3 -6 -4 -2 -3 -2 7 -11 2 4 -2 -2 -7
1 1 1 -1 0 -1 -3 -1 4 7 -9 13 3 27 14 -3 -4 2 -0 0 3 3 3 -4 -4 -1 0 -2 -0 1 -0 2 -0 0 -0 0 2 0 -11 3 5 -1 -3 -1 3 -1 -6 -7 -3 -7 -2 1 -3 -6
-0 -1 -1 -2 -3 0 -1 0 2 0 4 0 4 17 0 9 -1 -1 1 1 1 2 -3 -3 -1 -5 -3 1 3 2 3 3 1 -2 -1 0 -3 -9 -4 6 3 0 -5 -6 -5 -4 -3 -5 -6 -1 6 2 -2 -8
-3 -3 -1 0 1 1 0 1 1 1 -2 -1 7 8 20 10 4 -0 0 0 -1 -1 -2 -3 4 2 2 3 3 4 1 -1 1 -3 3 -1 -16 1 2 -1 2 -3 -4 -6 -7 -2 2 -1 4 -5 1 -1 -3 -1
4 1 -2 -3 -4 -1 -1 -1 -1 -4 8 1 4 14 18 1 6 8 -4 -1 -4 -2 -3 -1 -2 3 4 0 -2 2 3 3 0 -1 0 -2 -20 9 -2 1 1 -1 -2 -1 -2 2 2 -4 -8 -7 -4 1 1 -1
5 2 9 3 -1 6 6 -2 1 1 4 7 -0 3 1 6 5 -2 -5 -3 -1 -2 -2 -1 0 -0 -0 1 1 -2 -0 -1 0 -0 -3 -10 -3 -2 1 1 2 -2 -4 -3 2 -4 -2 -0 3 -4 -4 -2 -2 -3
-2 3 7 -1 0 2 2 2 1 1 1 8 10 5 6 3 1 -4 -4 -4 -4 -0 -1 -2 -3 -1 3 5 3 -4 0 2 -0 -1 -6 -13 7 -3 -1 -0 -2 -0 2 3 -2 -0 -2 -5 3 1 -7 3 -1 2
-0 -2 2 8 8 6 11 5 2 2 1 -5 -15 -5 -2 3 -4 -1 -1 2 3 1 1 0 -1 -2 -2 -1 -1 -2 -1 -1 -1 -2 -12 4 -6 -5 -6 -4 -2 1 3 -3 -2 -4 -3 -3 -3 -1 -3 -0 -1 -2
-1 -1 -2 4 6 -2 2 12 2 -1 -2 -3 -1 -4 -9 3 -2 6 10 9 2 -2 -1 -4 -1 0 0 -1 -1 -1 -1 -1 -3 -10 0 -4 -2 -1 1 -1 0 -2 -3 -2 -0 -0 -2 -3 -3 -4 -2 -0 1 -2
10 5 1 7 2 -0 5 9 8 -2 -2 -3 -3 -4 2 2 12 6 2 2 2 2 1 -1 -4 -3 -3 -0 -0 -1 -1 -8 -11 3 5 1 1 -0 -3 -0 3 -3 -6 -3 0 1 0 -1 -4 -4 -2 1 -3 -1
4 -0 -1 6 6 -1 -1 -2 34 4 2 -3 -3 -1 2 8 4 -5 -6 1 6 2 -2 -2 -2 -3 0 -2 -4 -7 -15 4 8 4 2 1 -1 -4 0 3 4 -1 -1 1 0 0 -1 1 1 2 -3 1 1 2
2 1 0 6 -1 -0 -3 1 20 -0 -1 -1 -4 -1 -2 1 2 -3 -3 1 0 1 3 -1 2 -3 -9 -5 -6 2 4 6 5 1 2 -0 -1 3 2 -6 -2 2 0 -0 1 -1 -3 -2 -1 -1 -1 -2 -2 0
4 2 4 3 1 2 -0 5 9 3 -0 -4 -3 -0 1 2 -3 5 -3 -1 3 5 5 -1 -6 -5 -5 -1 -0 6 3 1 -3 -4 -1 3 1 -3 0 2 2 1 -3 -2 -3 -1 -0 3 0 -3 -2 -2 -2 -1
2 0 -1 2 -1 2 1 -2 2 1 -5 -5 -0 2 0 2 2 4 -0 -5 6 2 -6 -15 -15 3 8 4 4 1 1 -2 -6 -10 4 8 5 -3 1 -1 -1 -2 -1 1 3 3 0 -1 1 -1 -0 -1 -2 0
1 2 0 4 -1 3 -0 -2 -2 -1 -2 -5 -2 2 -2 2 1 2 2 3 -6 -11 -8 -8 9 5 -1 3 2 3 4 -2 1 2 -3 -14 0 -1 -1 -1 -2 2 1 -1 -4 -0 2 -0 -1 -1 -0 0 0 0
-1 1 2 5 22 5 2 0 -2 -3 -1 -2 0 2 -2 -0 1 -0 4 -7 -17 2 1 0 3 1 6 4 4 2 -1 -2 4 -0 1 -0 -5 -2 -1 2 -3 1 2 1 -0 -0 0 -2 -2 -1 0 0 1 -0
3 3 4 0 -1 -2 -3 3 2 2 8 -1 -0 -0 -0 0 0 2 -8 -9 -7 11 7 3 5 1 3 8 4 -3 -2 -2 -0 0 -3 -2 -2 -1 3 2 -2 -3 -0 4 2 1 -0 -1 -1 -0 1 -0 -0 -0
1 1 1 0 0 1 1 -0 1 1 3 1 1 2 0 2 2 -0 -5 4 10 9 5 -1 0 0 -1 -3 2 -0 -4 -4 -1 5 -3 -5 1 6 3 -1 2 -0 -1 0 1 1 0 1 -0 -0 0 -0 -0 1
-1 -2 -3 -1 -2 -2 -1 0 1 0 -2 0 1 0 -1 0 0 -1 -3 2 1 2 3 2 2 -0 1 -1 -3 -5 -4 -3 -3 -1 0 -0 0 4 3 3 -3 2 2 2 3 2 1 1 -0 1 2 1 -0 0
-1 -0 0 1 -0 -2 -1 -0 -0 1 2 1 -0 -2 -4 -1 -1 1 2 3 3 3 2 0 -2 -2 0 -5 -6 1 0 -1 -1 1 1 -1 -1 -1 -3 -4 1 7 3 1 1 2 2 2 2 1 0 -1 -1 0
-0 0 -1 -1 -1 0 0 -0 -0 -0 1 -0 -3 -0 -2 0 3 1 1 1 -0 -1 -0 -1 -1 -1 -3 -0 -1 -5 -3 -1 0 1 0 -0 -1 -3 -3 -2 -1 1 3 3 2 1 2 1 0 -0 -1 0 0 1
1 2 1 1 1 0 -1 -0 -0 0 1 0 0 1 2 3 1 1 1 -1 -1 -0 -1 -0 -1 -3 -2 -2 -1 1 2 2 1 1 -1 -5 -3 -1 3 1 0 0 1 1 1 -0 1 1 1 1 1 1 0 -0
1 2 1 2 2 1 1 0 1 -0 -0 0 -1 1 -1 -1 -0 1 -0 1 -2 -1 -2 -1 -1 -3 -1 1 2 2 -2 -3 -2 4 2 4 7 5 -2 0 1 1 2 -0 0 1 2 2 2 1 1 1 1 0
1 1 -1 -0 1 1 1 0 0 1 -1 0 1 2 2 3 1 1 -1 -2 -1 -3 -1 -1 0 1 1 2 -1 -3 -1 -3 0 -2 -0 1 -0 1 -2 2 1 -1 1 1 2 1 1 1 1 0 0 0 1 2
0 0 0 -0 1 1 0 1 2 2 3 4 3 1 -0 -1 -1 -2 -2 -2 -1 0 -0 2 1 -1 -1 -1 1 4 3 1 0 1 -0 -1 -2 1 0 3 2 1 1 -0 0 1 -1 1 1 2 1 1 1 1
1 0 1 -0 1 -1 -1 -1 -1 -1 -0 -1 -1 1 -1 -0 -1 1 -0 -0 1 1 0 -1 -1 -1 -1 0 1 1 -1 -1 2 3 3 3 3 -0 1 2 2 1 1 0 1 1 1 1 1 1 1 1 1 0
-0 -0 0 0 0 1 1 1 1 1 0 0 0 1 1 1 1 1 2 1 0 -0 -0 0 1 0 0 1 1 1 1 -1 -0 -2 -2 -0 -1 -1 2 3 2 1 1 1 1 1 1 1 1 1 1 1 1 0
Height
2997 3000 3003 3004 3006 3007 3008 3010 3010 3011 3013 3013 3015 3017 3021 3025 3026 3028 3031 3032 3035 3035 3037 3039 3040 3042 3043 3045 3046 3047 3051 3049 3052 3053 3055 3055 3054 3053 3053 3052 3051 3054 3055 3054 3054 3053 3051 3044 3044 3048 3046 3044 3040 3036
2990 2990 2993 2996 2997 2999 3002 3004 3005 3006 3007 3009 3010 3011 3013 3014 3017 3019 3021 3023 3025 3027 3030 3030 3032 3033 3035 3036 3039 3039 3042 3043 3045 3046 3047 3047 3047 3045 3047 3048 3046 3049 3047 3048 3050 3046 3042 3040 3040 3038 3034 3032 3029 3025
2986 2985 2985 2986 2989 2991 2993 2996 2998 3000 3002 3001 3004 3005 3006 3007 3007 3011 3014 3016 3017 3019 3022 3022 3025 3027 3028 3030 3031 3033 3035 3038 3039 3040 3040 3041 3041 3040 3040 3039 3040 3039 3041 3039 3039 3039 3037 3035 3035 3032 3028 3025 3021 3017
2981 2980 2980 2980 2981 2983 2986 2990 2992 2994 2994 2996 2998 2997 3000 3002 3003 3003 3006 3009 3011 3013 3014 3015 3017 3019 3021 3022 3025 3028 3030 3030 3032 3033 3032 3033 3035 3033 3033 3033 3033 3035 3033 3033 3031 3031 3029 3028 3026 3023 3019 3016 3012 3008
2977 2976 2974 2974 2975 2976 2980 2982 2985 2987 2989 2989 2991 2993 2994 2996 2996 2998 3000 3002 3004 3009 3008 3007 3009 3012 3015 3016 3020 3022 3023 3024 3023 3025 3025 3026 3025 3029 3026 3026 3024 3028 3027 3025 3025 3025 3021 3020 3017 3014 3011 3007 3003 2997
2972 2971 2970 2970 2970 2970 2972 2974 2977 2979 2982 2984 2984 2986 2987 2989 2992 2994 2993 2995 2998 3001 3002 3004 3005 3007 3010 3011 3012 3014 3015 3017 3017 3017 3018 3019 3020 3023 3020 3017 3020 3022 3021 3020 3018 3017 3014 3012 3010 3006 3001 2997 2993 2988
2966 2966 2965 2965 2965 2966 2967 2968 2970 2972 2973 2976 2978 2981 2982 2984 2986 2989 2992 2993 2994 2996 2997 2999 2999 2999 3001 3003 3005 3006 3008 3010 3011 3012 3012 3014 3016 3016 3013 3012 3015 3014 3013 3012 3011 3009 3007 3006 3001 2998 2995 2990 2985 2979
2961 2961 2961 2961 2961 2961 2962 2963 2964 2966 2967 2971 2975 2977 2978 2980 2983 2985 2986 2988 2990 2992 2994 2995 2996 2997 2997 2998 3000 3000 3002 3005 3006 3007 3008 3009 3011 3010 3007 3011 3009 3008 3007 3007 3006 3003 3001 2997 2993 2989 2985 2979 2973 2969
2955 2955 2956 2956 2957 2957 2958 2959 2960 2962 2964 2969 2971 2973 2973 2975 2979 2982 2984 2985 2988 2992 2990 2991 2991 2993 2992 2992 2994 2996 2998 2999 3002 3003 3005 3007 3004 3002 3006 3005 3004 3003 3002 3002 3000 2997 2994 2990 2985 2980 2975 2971 2966 2961
2950 2950 2951 2952 2953 2954 2955 2955 2957 2959 2962 2966 2968 2972 2970 2971 2975 2979 2981 2984 2985 2986 2986 2986 2987 2988 2990 2990 2991 2996 2995 2998 2998 2999 3001 3000 2995 3000 2999 2999 3000 2998 2997 2996 2993 2989 2986 2981 2976 2971 2966 2962 2958 2952
2944 2945 2946 2947 2948 2950 2952 2952 2954 2957 2959 2962 2963 2965 2966 2969 2973 2975 2978 2981 2982 2983 2981 2980 2983 2984 2985 2988 2990 2994 2994 2994 2994 2995 2997 2994 2994 2995 2994 2995 2995 2994 2992 2989 2986 2982 2978 2972 2966 2961 2956 2953 2948 2942
2939 2941 2942 2943 2945 2947 2949 2950 2952 2953 2955 2959 2961 2963 2965 2967 2970 2973 2975 2978 2977 2978 2977 2978 2979 2980 2983 2986 2988 2990 2994 2993 2992 2992 2993 2991 2991 2991 2992 2991 2990 2988 2986 2983 2979 2973 2968 2964 2959 2954 2948 2943 2937 2931
2935 2936 2938 2940 2942 2944 2946 2947 2949 2951 2953 2955 2959 2961 2963 2964 2966 2967 2967 2969 2971 2971 2974 2976 2977 2978 2981 2985 2985 2988 2991 2991 2990 2989 2988 2987 2988 2988 2988 2987 2985 2983 2980 2975 2969 2964 2959 2955 2951 2946 2939 2934 2926 2920
2931 2933 2935 2937 2938 2941 2942 2944 2947 2949 2952 2953 2955 2958 2960 2959 2961 2962 2964 2966 2968 2970 2972 2973 2975 2977 2979 2982 2984 2986 2988 2989 2986 2984 2983 2984 2984 2984 2983 2982 2979 2975 2970 2964 2959 2955 2951 2947 2941 2935 2930 2923 2916 2910
2928 2930 2932 2934 2937 2938 2941 2943 2944 2947 2950 2953 2955 2955 2956 2957 2958 2959 2960 2962 2966 2969 2970 2971 2974 2978 2979 2981 2982 2984 2985 2983 2982 2980 2982 2981 2981 2979 2977 2974 2971 2966 2961 2955 2952 2947 2943 2937 2930 2924 2920 2914 2907 2901
2925 2927 2930 2933 2935 2937 2939 2941 2942 2945 2948 2950 2952 2953 2954 2955 2956 2958 2960 2962 2964 2966 2968 2971 2973 2976 2978 2979 2980 2980 2981 2979 2979 2979 2979 2977 2975 2972 2969 2965 2961 2957 2952 2947 2943 2938 2932 2926 2919 2913 2909 2904 2897 2892
2923 2926 2929 2931 2933 2935 2938 2939 2939 2942 2945 2947 2948 2951 2953 2954 2955 2956 2959 2961 2963 2965 2967 2970 2972 2974 2975 2975 2976 2975 2975 2976 2976 2976 2974 2973 2969 2966 2962 2958 2953 2948 2944 2939 2934 2928 2922 2916 2910 2904 2898 2893 2888 2883
2922 2925 2927 2930 2931 2934 2937 2939 2940 2941 2942 2944 2947 2950 2951 2953 2954 2956 2958 2958 2961 2963 2965 2967 2969 2969 2971 2970 2971 2973 2973 2973 2972 2971 2968 2965 2962 2959 2954 2949 2944 2939 2934 2930 2924 2917 2911 2905 2899 2893 2888 2883 2878 2874
2921 2924 2926 2928 2931 2934 2937 2939 2940 2939 2940 2942 2945 2947 2949 2951 2952 2953 2955 2957 2958 2961 2964 2965 2966 2964 2965 2967 2969 2970 2969 2968 2965 2962 2960 2957 2954 2950 2945 2941 2936 2931 2925 2919 2913 2907 2901 2895 2889 2883 2878 2873 2869 2866
2921 2924 2926 2928 2930 2932 2935 2936 2937 2938 2938 2940 2942 2944 2946 2947 2949 2950 2951 2954 2956 2958 2958 2957 2959 2962 2964 2965 2965 2965 2964 2962 2958 2954 2952 2950 2947 2941 2937 2932 2926 2920 2914 2909 2903 2896 2890 2885 2880 2875 2870 2866 2861 2858
2920 2922 2925 2928 2930 2932 2934 2934 2934 2935 2936 2937 2938 2939 2941 2942 2944 2946 2948 2949 2951 2951 2950 2954 2958 2959 2960 2961 2961 2959 2958 2955 2952 2949 2944 2940 2937 2932 2927 2922 2916 2910 2904 2897 2892 2888 2882 2877 2871 2867 2863 2859 2855 2852
2921 2924 2926 2927 2928 2932 2932 2932 2932 2932 2934 2934 2935 2935 2936 2938 2940 2940 2942 2944 2945 2946 2945 2948 2954 2955 2955 2956 2955 2953 2951 2948 2946 2942 2939 2933 2927 2923 2918 2913 2906 2901 2895 2889 2884 2878 2873 2868 2864 2861 2857 2854 2851 2848
2923 2925 2927 2929 2931 2931 2931 2929 2930 2929 2929 2929 2930 2932 2933 2934 2935 2937 2938 2938 2939 2940 2942 2945 2947 2948 2948 2949 2948 2946 2944 2942 2939 2935 2931 2926 2922 2916 2910 2905 2898 2892 2887 2883 2877 2871 2866 2862 2859 2856 2854 2851 2848 2845
2927 2928 2928 2929 2929 2929 2928 2928 2928 2929 2928 2929 2929 2930 2931 2931 2933 2933 2933 2933 2936 2939 2941 2941 2941 2941 2941 2942 2942 2940 2938 2935 2932 2928 2923 2918 2914 2910 2903 2898 2892 2886 2880 2875 2870 2865 2861 2858 2856 2853 2851 2848 2846 2844
2929 2930 2929 2928 2928 2928 2927 2927 2927 2928 2929 2929 2929 2929 2930 2931 2931 2931 2931 2933 2933 2934 2935 2936 2937 2938 2938 2938 2937 2935 2932 2929 2926 2922 2917 2912 2907 2903 2898 2893 2886 2879 2874 2869 2864 2861 2858 2855 2852 2850 2848 2846 2844 2843
2927 2928 2928 2927 2927 2927 2927 2926 2926 2926 2926 2928 2929 2930 2930 2930 2930 2931 2931 2929 2929 2932 2934 2935 2936 2936 2935 2934 2932 2929 2927 2923 2920 2915 2910 2905 2900 2895 2892 2886 2880 2875 2869 2865 2862 2859 2856 2852 2849 2848 2846 2845 2844 2843
2927 2927 2927 2927 2926 2926 2925 2924 2925 2925 2926 2927 2928 2929 2930 2930 2931 2931 2932 2932 2932 2933 2934 2934 2934 2933 2931 2929 2926 2924 2921 2917 2913 2909 2904 2899 2894 2890 2885 2880 2875 2870 2866 2863 2861 2858 2854 2851 2849 2848 2846 2845 2845 2844
2925 2925 2926 2926 2925 2924 2924 2924 2924 2925 2926 2927 2928 2928 2929 2930 2931 2931 2932 2932 2932 2932 2932 2932 2931 2929 2927 2925 2923 2920 2917 2913 2909 2904 2900 2895 2891 2886 2882 2877 2872 2868 2864 2863 2861 2857 2855 2853 2850 2849 2848 2847 2847 2847
2924 2924 2925 2924 2924 2923 2923 2924 2925 2925 2926 2926 2927 2928 2929 2930 2930 2931 2932 2932 2931 2931 2930 2930 2928 2927 2925 2922 2919 2916 2913 2909 2905 2901 2898 2894 2889 2885 2880 2875 2870 2866 2864 2863 2861 2859 2857 2855 2854 2852 2851 2851 2850 2850
2923 2922 2923 2923 2923 2924 2924 2925 2925 2926 2926 2927 2927 2928 2929 2929 2930 2930 2930 2929 2929 2929 2928 2928 2927 2925 2922 2919 2916 2912 2909 2905 2901 2898 2893 2889 2885 2881 2877 2872 2868 2866 2864 2863 2862 2861 2860 2859 2858 2857 2856 2855 2854 2854
2924 2922 2922 2922 2922 2923 2923 2923 2924 2925 2925 2926 2926 2927 2927 2927 2927 2926 2926 2926 2926 2926 2927 2926 2925 2923 2920 2917 2914 2911 2908 2903 2899 2895 2891 2886 2882 2879 2875 2871 2867 2865 2864 2863 2863 2862 2861 2860 2860 2858 2857 2856 2856 2856
2925 2924 2923 2922 2921 2921 2920 2921 2921 2922 2922 2923 2923 2923 2923 2922 2922 2923 2923 2924 2925 2925 2925 2924 2923 2921 2919 2916 2912 2909 2905 2901 2898 2894 2890 2886 2881 2878 2873 2870 2867 2865 2864 2863 2863 2862 2861 2861 2861 2860 2859 2858 2857 2857
2925 2924 2924 2923 2922 2920 2920 2919 2919 2919 2919 2919 2919 2919 2920 2921 2922 2923 2924 2924 2925 2925 2924 2923 2921 2919 2917 2914 2911 2907 2904 2900 2896 2892 2888 2884 2880 2876 2873 2870 2867 2865 2864 2864 2863 2863 2862 2862 2862 2862 2861 2860 2860 2861